GFSSGP_925_rhum_057.txt.gz
RH
83 69 61 45 87 56 73 58 47 48 43 38 32 35 54 49 54 70 59 62 56 54 71 87 88 93 93 77 77 83 96 97 96 90 91 94 95 94 97 95 94 94 93 88 89 90 92 93 94
55 65 58 79 93 76 70 43 54 45 34 31 30 34 40 51 42 52 58 60 47 48 52 68 84 82 89 76 81 83 95 93 90 94 95 95 96 95 93 87 84 92 93 93 90 88 92 90 88
55 61 76 71 59 68 82 48 46 38 31 37 37 36 45 53 44 46 49 44 41 42 49 88 85 90 92 80 84 87 89 91 93 93 95 96 94 94 93 93 92 95 92 91 91 87 89 91 93
49 53 85 90 65 49 60 53 40 37 36 38 36 50 47 42 43 47 44 40 38 40 53 83 92 95 95 91 93 94 90 94 93 96 97 95 95 94 93 94 93 90 93 91 90 88 88 90 91
48 65 83 68 60 58 46 54 63 41 46 40 41 57 57 47 44 44 42 36 36 41 60 75 85 94 94 95 96 96 94 96 91 94 97 96 92 88 95 95 93 91 92 89 87 88 87 87 88
78 57 66 67 50 55 49 60 66 44 44 42 49 57 60 50 44 42 38 34 35 40 50 75 92 87 92 93 95 94 93 95 96 97 96 97 95 95 92 90 89 89 89 80 88 86 86 68 73
62 75 61 49 46 67 58 62 72 50 48 48 37 58 58 49 44 39 35 33 36 39 50 66 79 86 96 97 96 96 97 96 97 98 88 97 94 92 89 88 87 86 86 87 84 86 83 70 74
56 65 52 49 48 70 48 50 57 48 58 34 37 56 69 50 44 37 34 33 35 38 44 53 63 68 69 83 95 96 97 96 95 95 83 88 77 61 59 66 85 84 83 85 72 74 82 70 64
45 63 57 69 51 49 43 53 50 50 46 41 37 40 47 49 43 36 35 33 37 38 39 42 49 55 62 76 92 93 96 96 90 74 58 63 57 64 67 62 85 83 82 81 73 67 60 61 60
54 47 78 36 41 39 36 44 51 52 42 38 38 40 48 44 41 38 33 33 35 36 36 35 41 48 52 54 79 74 74 69 60 57 73 67 58 62 60 64 62 69 66 59 57 61 62 66 61
37 39 32 34 34 40 43 72 48 41 39 36 41 50 48 41 39 35 32 33 34 34 34 36 43 48 46 58 58 55 60 65 59 61 60 54 55 57 58 64 68 70 68 58 60 67 69 64 56
33 28 34 38 32 38 43 41 37 38 59 32 37 47 46 40 34 32 32 32 33 34 34 37 45 49 49 50 52 52 66 51 50 58 61 60 58 57 63 64 62 57 61 55 58 66 55 59 58
27 28 32 32 32 33 31 31 78 43 32 32 38 46 44 39 34 32 32 32 34 35 35 39 48 53 55 53 53 50 46 43 46 62 61 54 61 60 57 58 68 56 54 44 50 53 53 48 47
18 21 39 39 30 29 31 31 26 30 30 36 40 45 40 37 33 33 33 33 34 36 37 42 49 56 56 58 55 49 46 46 44 48 57 61 62 60 63 58 62 55 57 49 51 53 48 47 45
16 23 26 37 34 31 25 32 27 32 31 39 40 41 38 35 33 33 33 33 34 37 39 45 52 57 60 64 58 52 53 46 49 45 65 62 69 66 67 55 62 59 61 58 52 46 40 37 44
18 19 30 27 34 28 28 33 23 29 33 39 40 39 38 35 33 34 33 34 35 35 40 47 47 55 59 58 62 56 54 48 54 51 60 68 71 75 73 57 52 51 52 57 58 48 43 37 40
11 18 23 29 31 27 30 46 48 27 31 37 39 38 37 35 34 35 33 35 36 37 42 46 46 52 59 62 60 55 54 51 49 51 57 68 70 74 65 52 63 64 53 48 44 44 42 38 37
11 12 14 24 29 26 28 38 80 26 28 34 37 36 37 35 34 35 34 35 36 39 44 48 49 51 60 64 63 53 55 53 53 51 63 74 72 70 72 64 62 65 53 44 47 43 48 37 38
7 10 12 14 23 28 32 40 84 26 26 34 37 37 37 35 33 35 35 35 36 40 45 50 52 55 60 62 59 52 51 50 57 50 60 69 67 71 73 68 67 65 64 57 53 44 50 37 38
9 11 12 12 19 29 38 33 28 27 27 32 36 36 36 34 34 35 35 35 35 41 45 52 54 60 63 59 57 51 48 46 46 46 59 63 62 72 67 69 63 63 54 62 57 55 51 41 37
10 11 14 16 20 24 28 35 26 30 26 28 31 32 30 34 34 34 36 35 36 40 46 54 58 61 66 55 56 55 51 48 48 48 55 62 64 65 65 69 70 66 64 59 65 63 56 51 38
13 9 9 12 18 26 22 39 35 57 29 29 30 32 29 30 31 33 35 36 36 38 46 53 60 64 68 61 51 54 50 45 44 47 47 55 63 63 66 70 70 71 64 61 63 63 60 55 38
13 9 7 8 13 19 21 28 24 23 34 28 28 29 28 28 29 32 34 36 36 37 45 50 62 66 62 66 53 55 54 46 44 42 52 49 64 65 60 70 69 72 68 70 71 70 64 48 50
11 11 10 9 8 15 20 25 25 30 26 24 24 26 27 26 27 28 32 35 36 36 41 48 62 71 71 70 60 57 53 48 40 42 51 50 55 61 64 64 76 71 65 72 70 70 68 68 50
13 14 19 18 14 12 9 19 20 19 21 23 21 23 25 25 26 28 30 32 37 37 39 46 60 73 76 71 67 64 59 55 52 50 47 44 41 43 57 65 71 69 74 71 70 76 72 70 60
15 14 18 25 15 10 7 12 17 13 18 25 36 21 21 24 24 26 28 31 36 38 41 43 56 71 75 72 70 68 64 52 51 49 45 45 39 38 58 70 65 70 69 70 74 71 70 64 69
16 18 11 14 12 11 7 6 6 11 13 21 21 17 21 22 23 26 27 29 33 38 42 45 50 66 73 69 72 73 68 58 46 44 52 50 44 40 44 56 67 64 64 66 67 63 69 70 70
14 12 17 14 25 24 12 10 7 7 11 13 14 16 22 28 22 22 26 29 31 35 39 44 49 61 68 66 72 72 73 68 55 52 59 54 49 49 48 52 57 64 63 64 68 58 60 66 63
15 18 18 16 14 20 20 12 8 7 7 11 12 14 14 19 20 21 24 27 31 33 36 41 47 53 63 65 65 63 66 67 65 62 61 61 58 56 59 59 59 61 62 62 70 66 57 66 64
12 11 12 23 26 16 16 14 7 7 6 8 11 12 12 13 16 19 20 24 28 33 35 38 42 47 56 60 63 64 64 62 62 62 62 64 66 65 63 68 64 65 59 62 69 70 56 63 63

GFSSGP_925_rhum_060.txt.gz
RH
65 73 67 64 80 73 74 88 76 47 41 32 36 46 57 46 71 82 72 61 60 67 89 96 92 83 94 88 90 89 90 90 91 94 93 94 94 96 92 95 95 85 88 92 92 91 95 95 92
56 56 59 74 97 84 76 84 68 42 33 32 36 55 45 54 48 54 58 52 51 64 76 88 85 87 80 80 89 94 94 95 95 92 88 93 95 95 88 80 93 91 90 89 92 93 92 94 95
60 53 83 78 72 81 94 64 56 34 30 38 45 41 43 54 48 50 49 44 43 50 62 89 82 86 91 93 91 92 94 94 94 93 94 90 95 94 92 92 96 92 92 91 88 92 90 95 96
44 50 74 94 75 62 71 64 38 39 36 35 40 51 44 43 44 47 45 38 38 52 73 83 88 92 92 93 85 86 85 82 92 95 94 96 94 93 94 91 91 94 92 91 89 89 91 90 85
48 63 85 74 62 55 48 74 47 48 41 73 43 55 52 46 43 41 36 34 38 62 78 88 86 90 87 90 92 91 93 90 96 91 95 95 94 94 97 95 91 93 92 90 89 88 89 89 68
71 62 77 69 65 50 52 59 59 70 64 89 48 54 54 46 41 36 34 36 47 56 65 86 91 93 90 93 93 90 95 94 92 90 94 96 95 94 91 90 90 90 91 89 89 91 86 69 50
51 75 68 66 65 68 58 53 54 42 56 72 42 60 51 44 41 34 32 38 41 49 65 78 85 94 95 92 95 93 95 95 90 89 93 93 88 89 89 89 89 89 83 87 89 87 68 50 45
56 72 63 58 74 85 55 56 71 64 47 41 40 61 61 44 41 34 33 35 40 48 55 66 73 83 84 91 96 96 96 94 76 85 78 47 59 80 77 80 85 86 86 81 78 59 49 36 37
38 76 77 69 49 80 49 52 73 86 49 40 38 49 43 41 36 33 32 35 43 43 48 53 61 72 78 85 94 96 94 81 78 69 54 68 71 73 79 69 79 81 75 68 68 60 59 49 51
46 72 87 63 45 50 42 39 48 54 42 40 40 39 42 38 34 33 31 38 37 36 39 42 53 62 68 68 84 83 82 84 67 68 62 68 70 61 67 69 75 60 62 63 63 79 66 76 74
34 48 65 46 39 36 42 54 59 45 42 40 50 47 40 37 34 32 31 41 36 32 31 42 51 49 58 61 76 70 74 72 58 65 63 68 64 61 69 66 66 62 52 60 70 69 71 75 77
34 32 35 38 30 30 42 72 68 88 62 33 41 40 39 38 34 30 28 37 34 31 32 40 46 48 52 53 65 58 62 64 55 56 58 60 58 61 61 73 74 72 67 71 59 60 72 63 58
24 25 30 32 33 30 37 74 86 80 74 53 39 39 39 38 34 30 28 30 33 30 35 42 45 56 54 54 54 52 56 53 53 54 61 59 66 68 69 68 55 68 67 55 53 45 66 61 50
18 18 22 30 35 36 40 45 40 69 56 40 43 42 37 36 34 29 29 30 32 30 37 45 46 54 60 54 59 58 56 51 50 51 56 67 69 60 64 63 64 61 54 64 61 51 50 50 58
13 19 20 29 34 49 37 65 53 65 65 43 44 42 36 33 30 30 31 32 33 32 38 45 50 51 57 56 58 51 48 48 43 52 54 62 69 65 62 71 60 61 54 56 45 42 46 47 48
14 17 22 22 33 26 32 47 49 67 50 43 43 40 38 34 29 30 31 31 33 35 41 44 43 52 57 60 57 49 50 52 47 60 61 65 70 74 61 59 64 56 61 43 50 49 43 49 48
13 19 21 21 31 27 26 54 52 62 40 37 39 39 38 38 31 31 31 32 34 38 46 45 46 52 55 62 51 57 56 55 46 55 60 66 70 74 74 53 63 66 58 54 46 48 42 37 43
14 15 14 19 26 26 27 41 54 68 49 35 35 36 37 36 32 32 31 31 35 40 44 46 51 54 56 64 57 58 54 51 54 52 61 68 68 71 74 69 55 65 54 57 51 43 42 45 39
10 9 10 10 18 27 29 58 48 43 43 46 34 35 35 36 31 32 31 32 36 42 45 50 51 58 58 63 64 57 54 54 61 56 63 72 72 70 76 67 62 67 49 53 50 44 43 44 37
13 12 9 8 15 24 42 63 48 33 38 47 30 33 34 33 33 33 32 32 34 42 47 51 54 62 59 66 61 56 52 57 52 64 69 63 69 67 70 66 60 65 57 56 58 47 49 47 35
10 10 9 11 12 19 23 60 61 50 66 66 27 29 31 32 34 36 34 33 34 43 50 52 56 66 60 63 58 57 55 56 55 62 62 62 62 64 68 64 65 58 67 62 63 62 61 57 41
12 8 8 9 13 19 22 48 51 70 75 91 37 28 29 31 32 35 35 34 34 44 51 54 60 70 59 60 57 57 56 51 44 59 58 56 63 64 68 68 71 65 65 64 56 63 58 49 48
12 9 9 8 10 12 17 24 29 57 68 76 55 33 26 29 30 34 35 35 34 42 50 56 61 68 66 59 60 55 57 49 48 50 52 61 62 63 64 67 70 69 66 68 65 61 64 66 59
9 10 11 10 8 11 12 18 19 48 52 66 58 62 26 27 29 33 34 35 35 39 47 55 64 67 68 58 62 58 53 53 47 44 58 63 62 63 64 66 67 71 68 69 69 70 68 64 59
10 12 19 19 16 13 7 10 18 18 35 46 60 75 29 27 29 32 36 36 36 37 45 52 66 70 72 74 58 67 55 51 53 49 54 54 64 61 60 65 68 68 68 70 72 72 72 66 68
12 13 18 25 19 14 10 10 8 9 14 35 41 40 35 26 25 28 33 36 38 38 42 49 66 71 74 76 68 63 64 52 53 56 44 48 45 52 54 60 64 68 72 73 73 72 74 66 63
15 16 11 14 12 15 11 8 6 6 9 17 30 33 54 60 46 28 31 33 39 39 41 47 60 71 74 72 77 66 67 63 55 54 48 46 44 46 54 55 69 65 69 69 71 68 68 70 67
10 11 17 15 25 26 15 15 10 9 9 12 32 38 49 53 62 56 28 31 35 39 41 44 54 69 75 77 76 76 63 68 53 47 51 48 49 42 59 62 62 65 67 66 69 67 63 68 70
12 14 14 14 16 21 21 16 11 12 10 11 21 36 49 44 64 88 68 29 33 37 40 43 47 64 73 75 75 74 76 66 57 56 44 56 48 55 44 58 61 65 63 67 67 62 63 63 62
11 14 12 18 25 20 17 14 8 9 8 8 8 12 32 40 56 73 78 52 30 34 37 42 45 50 66 73 72 74 74 73 67 56 58 54 57 51 60 51 61 59 65 67 67 71 65 65 64

GFSSGP_925_rhum_063.txt.gz
RH
59 58 64 68 94 89 88 95 69 72 45 37 36 47 58 53 58 83 72 72 79 79 72 79 82 80 79 82 83 85 89 84 84 82 91 92 93 96 96 96 91 89 96 93 93 94 95 95 95
55 71 66 85 97 95 90 86 85 47 45 48 46 45 53 69 58 72 71 69 78 79 86 89 81 75 72 73 82 85 85 88 82 88 80 92 88 94 96 94 92 89 91 94 93 94 93 94 93
62 57 82 91 94 92 91 92 85 42 41 45 59 44 52 69 62 67 63 71 76 89 86 82 78 81 88 81 82 82 91 88 80 86 92 86 93 95 96 93 92 92 91 94 92 92 95 94 77
74 58 81 96 86 88 86 88 87 45 48 49 55 61 53 50 54 54 58 63 77 84 78 80 87 90 92 93 88 91 92 88 84 89 88 96 96 93 92 94 94 92 91 90 90 93 90 86 65
70 72 94 92 86 83 78 81 89 65 70 56 52 64 62 49 49 49 47 64 72 73 73 88 84 84 91 84 92 93 92 81 84 89 97 96 95 96 94 92 95 92 92 91 90 89 88 82 72
78 76 88 88 69 78 66 61 63 69 75 66 58 61 59 48 48 44 46 69 63 75 83 88 82 90 91 94 85 86 89 81 87 91 90 95 96 94 92 90 92 92 89 90 86 78 58 58 72
70 79 82 75 72 74 82 57 70 63 66 54 49 66 57 47 45 43 62 67 73 74 77 85 88 93 91 81 95 84 94 84 88 80 89 88 92 94 91 91 90 91 88 87 70 56 51 52 64
65 76 81 71 75 74 71 66 62 58 70 60 45 66 63 45 38 48 55 62 70 76 79 86 87 85 86 90 94 94 94 95 78 75 89 74 85 89 90 83 88 89 89 90 86 70 60 55 57
44 81 86 77 67 65 60 68 65 74 79 51 54 51 46 42 39 42 49 60 70 70 70 75 82 85 87 85 93 93 83 83 63 57 66 74 78 80 84 76 84 88 85 85 63 56 49 50 59
57 80 71 57 66 60 49 54 59 65 64 72 61 46 45 44 40 40 50 54 59 69 68 67 78 83 76 86 83 76 62 62 54 65 70 74 79 67 63 77 75 75 65 55 56 55 62 58 57
38 57 64 62 55 59 82 72 60 70 55 74 66 51 45 44 37 43 45 48 52 61 64 62 69 68 76 65 70 65 69 69 74 69 66 74 72 61 60 62 67 68 61 60 60 64 65 51 54
40 36 56 51 45 58 78 68 68 80 86 74 51 46 43 42 36 40 42 40 41 49 58 57 62 67 62 55 64 70 69 72 63 62 66 68 67 62 63 64 75 68 69 68 64 64 63 65 57
30 32 40 38 37 58 60 63 67 74 74 70 49 44 43 39 36 41 39 36 36 47 56 50 56 66 57 63 74 63 61 70 63 55 63 63 65 64 64 66 69 70 68 65 68 65 59 66 59
22 20 26 37 43 54 63 70 65 66 83 77 47 45 42 39 36 39 42 39 37 48 49 54 55 56 60 66 60 56 61 66 57 54 56 60 66 70 74 57 58 62 62 54 56 67 58 55 55
16 19 16 38 44 52 57 78 62 73 70 70 49 44 42 39 37 34 40 36 37 48 46 54 55 56 57 52 54 55 56 57 58 53 53 60 66 58 67 70 67 63 58 50 54 56 56 57 54
18 17 24 20 38 42 50 77 73 71 78 77 46 44 42 41 37 34 36 34 43 49 45 51 50 58 58 53 60 59 56 59 56 57 59 70 66 64 60 60 62 59 57 54 43 51 56 59 54
22 24 22 22 37 37 51 74 82 68 81 68 49 44 42 42 37 34 33 35 45 46 49 49 48 58 56 58 60 52 54 54 61 56 58 67 72 62 54 57 58 61 57 46 48 51 52 54 50
30 21 19 20 33 35 46 76 77 79 93 72 51 45 42 40 35 35 34 36 41 44 44 46 50 52 53 58 52 54 53 55 56 58 62 68 68 70 65 61 62 61 52 52 48 50 44 48 45
20 20 17 13 18 35 52 81 84 74 72 93 80 46 42 40 33 34 34 38 45 46 43 46 53 54 55 61 52 60 58 62 60 63 64 67 68 72 65 68 66 54 53 55 50 52 49 46 46
18 20 19 14 9 34 54 68 72 75 76 82 80 45 42 38 36 34 36 39 50 52 44 46 54 56 56 63 55 59 58 54 57 60 56 61 70 70 64 61 62 62 51 57 50 49 48 55 41
17 20 17 15 11 35 59 69 63 59 58 71 88 60 48 38 39 36 37 40 49 55 49 47 56 56 56 61 58 63 57 53 58 61 64 68 71 66 66 66 67 60 59 58 59 52 55 60 47
19 13 11 10 12 19 35 78 67 62 75 74 77 77 62 39 37 37 38 38 50 52 51 48 60 57 58 54 56 62 63 61 54 59 66 66 67 63 66 64 67 66 63 62 61 59 57 60 52
16 13 14 14 14 13 12 20 58 57 74 76 73 85 56 45 36 39 36 36 48 54 54 51 59 59 58 62 58 59 60 59 55 57 64 64 65 64 63 67 66 66 64 62 60 65 57 65 66
10 12 14 16 19 23 14 15 38 68 60 76 60 54 49 44 37 38 35 37 41 55 55 55 62 64 58 57 61 57 57 56 57 62 64 59 65 65 64 66 61 64 61 68 66 68 65 59 62
13 15 29 31 28 28 14 15 14 57 54 50 54 51 57 42 35 40 39 37 40 55 57 62 68 75 63 57 62 58 56 54 55 57 55 60 61 65 65 68 66 67 66 72 70 71 73 65 61
18 18 31 34 35 26 16 19 16 34 47 46 49 52 48 59 45 38 40 37 39 52 58 62 67 72 75 62 57 62 55 52 51 61 58 58 60 58 59 67 65 64 66 67 69 71 69 68 62
18 25 15 21 19 25 21 17 11 10 42 51 45 50 50 63 74 53 39 38 38 45 54 61 70 70 77 72 58 61 62 51 50 52 60 61 60 59 53 59 65 62 65 61 70 69 69 70 68
12 13 23 23 29 34 25 23 24 16 12 40 54 58 65 74 77 81 73 45 40 40 51 56 70 72 76 76 70 62 62 57 50 50 50 57 47 53 55 61 61 62 65 70 69 69 67 68 66
17 17 18 20 25 31 30 25 16 15 19 43 46 52 58 63 75 80 81 63 52 45 44 54 68 73 76 76 81 71 66 65 57 54 47 52 49 51 48 62 61 66 67 68 73 70 65 69 65
13 16 19 30 29 30 35 30 15 15 14 28 34 38 52 58 58 74 73 60 58 49 43 47 58 74 75 78 75 82 71 65 67 56 49 50 48 50 60 58 59 68 70 67 68 70 66 65 70

GFSSGP_925_rhum_069.txt.gz
RH
96 81 73 79 90 96 93 84 86 79 64 49 45 51 62 69 71 80 89 74 52 64 76 85 85 92 95 90 82 82 73 86 87 86 82 84 92 90 95 94 92 93 96 96 96 95 95 95 96
81 77 81 91 92 97 90 72 92 79 65 47 47 54 64 80 75 92 97 73 51 64 76 83 79 92 97 97 95 89 89 89 87 90 89 82 89 82 94 96 96 92 93 94 95 96 96 96 95
66 74 91 96 96 97 96 83 80 66 50 50 67 58 70 87 82 84 90 68 58 72 77 80 83 89 95 96 93 91 95 90 86 93 92 89 95 97 97 96 94 95 91 94 96 96 95 88 84
76 75 85 99 93 86 82 84 82 79 62 69 68 82 71 71 73 89 92 68 64 77 76 88 94 87 82 96 94 95 95 94 95 95 96 96 96 92 97 92 95 96 92 96 95 96 95 93 83
80 85 96 96 86 85 76 73 84 83 73 69 64 87 87 75 83 93 81 66 72 83 80 85 88 93 90 93 95 94 95 95 92 90 97 96 97 96 95 93 90 90 93 91 92 95 79 79 77
85 85 98 92 81 79 87 74 82 82 73 68 72 74 81 87 91 97 87 74 80 80 77 86 87 88 87 82 92 92 96 93 93 95 96 93 93 98 95 93 92 91 88 89 94 94 83 82 90
85 93 90 82 91 95 90 93 81 74 65 64 60 79 87 84 87 95 86 81 80 78 88 91 89 94 92 91 91 93 94 93 94 96 92 90 96 95 94 93 90 87 89 90 92 80 80 80 82
81 86 85 72 82 83 81 78 65 64 63 47 49 83 95 80 94 96 90 85 82 86 80 86 86 88 89 94 95 95 95 94 95 94 94 93 92 93 94 85 90 89 89 91 88 79 77 74 80
58 89 88 69 74 86 76 76 84 69 59 45 60 61 67 87 96 99 99 99 100 92 87 88 94 90 86 90 94 96 94 95 95 95 88 89 86 92 90 91 94 92 90 88 76 68 68 71 75
78 92 71 57 64 78 69 72 80 74 64 62 56 55 77 87 91 93 96 97 100 100 94 91 83 83 88 89 90 92 85 85 90 88 85 79 80 81 85 92 93 90 88 78 57 60 64 68 66
80 80 55 55 57 60 64 68 76 73 89 75 62 69 75 79 83 84 89 94 96 95 94 86 80 81 84 91 82 70 70 74 79 81 78 76 76 76 79 83 74 80 70 63 68 68 61 62 65
69 49 55 48 54 62 67 70 75 69 81 72 67 63 68 72 77 78 80 84 91 91 85 77 76 79 82 77 64 56 67 71 75 78 76 72 66 65 65 66 62 61 62 64 68 64 64 66 69
57 47 39 38 49 60 66 70 75 86 87 78 62 58 63 66 70 73 74 77 80 87 83 76 74 71 75 65 59 58 66 69 72 75 72 69 64 60 56 56 59 62 60 57 58 61 64 66 67
38 38 35 32 60 66 65 70 60 77 82 79 76 56 55 59 62 65 70 76 78 78 79 78 76 66 65 57 64 67 71 73 75 73 71 68 64 62 63 64 64 66 59 58 57 59 59 61 64
37 41 26 65 70 70 62 73 67 68 72 87 65 50 49 55 55 58 65 73 68 68 68 76 74 63 62 55 62 67 68 72 71 67 65 68 64 62 63 64 62 63 62 58 60 61 61 58 58
25 26 28 72 66 62 61 78 72 81 76 74 60 49 51 52 50 54 57 68 68 67 64 69 73 68 58 67 68 64 68 71 69 68 64 66 65 63 59 60 61 62 64 58 60 62 61 60 60
34 35 26 66 68 64 70 82 75 76 73 73 65 51 50 49 48 49 50 59 64 60 58 65 69 68 60 68 65 62 63 68 67 65 64 66 61 62 60 59 62 62 62 53 59 59 57 60 62
36 32 28 25 63 63 77 75 81 81 77 75 66 54 49 49 48 46 47 53 60 60 56 59 66 65 64 70 68 66 63 63 64 62 65 66 62 61 62 62 61 62 60 51 56 60 57 57 57
27 28 28 24 25 66 73 88 86 85 82 77 68 56 50 49 43 44 47 57 61 66 64 61 66 65 68 67 64 65 62 63 64 60 63 61 68 64 59 64 62 60 60 53 51 52 57 58 58
27 30 32 26 31 43 63 94 83 88 79 74 69 56 52 48 48 46 49 56 64 65 63 63 63 61 59 63 61 56 59 60 61 61 64 67 68 68 61 62 63 60 59 54 53 52 59 58 55
31 33 33 31 40 69 80 93 89 84 75 73 72 70 56 48 47 47 52 56 62 65 67 66 59 57 56 57 60 62 67 67 69 65 67 67 66 65 62 60 59 62 59 52 51 51 49 50 53
40 30 27 22 18 23 62 91 92 82 85 81 77 76 70 54 44 44 51 56 58 61 61 59 53 53 52 52 58 58 63 67 66 61 66 68 71 72 67 66 60 61 57 58 55 53 50 47 46
34 27 22 19 19 45 47 55 56 87 88 83 81 78 70 63 48 45 50 52 55 57 60 56 50 52 51 51 57 54 60 60 59 64 67 66 69 72 72 69 63 64 59 57 59 61 59 55 50
19 18 22 27 27 28 25 25 39 90 74 71 71 80 66 56 51 42 48 50 54 56 60 63 57 53 52 52 57 54 56 61 64 62 66 66 64 70 72 69 67 66 60 62 60 58 58 58 56
18 24 31 28 31 30 23 21 20 41 57 54 65 74 66 54 56 49 47 52 53 55 61 69 64 62 53 51 51 54 54 60 64 63 59 65 65 66 72 70 71 67 62 63 65 62 65 59 59
18 23 33 30 36 30 25 24 17 16 33 49 56 58 63 57 55 49 43 50 53 55 60 70 71 66 60 54 52 52 52 54 63 63 65 58 62 62 66 68 69 68 68 62 67 67 66 67 60
16 27 22 35 31 28 27 21 18 32 40 54 57 62 68 59 54 48 42 46 52 56 58 66 70 67 63 57 54 52 52 52 59 60 64 66 59 61 65 68 67 69 70 66 66 68 66 71 65
18 17 23 33 34 30 30 25 30 44 43 61 53 64 64 64 60 54 44 45 49 53 57 62 65 66 57 58 58 53 51 49 54 58 60 66 66 62 64 67 65 67 71 72 68 73 70 72 69
26 28 29 30 36 40 38 33 32 42 44 46 58 56 63 55 58 64 52 42 48 50 54 60 67 69 70 68 63 61 55 51 51 56 58 59 64 67 67 64 62 62 67 71 69 67 71 73 70
25 27 30 34 28 40 40 49 28 33 39 64 80 78 65 54 59 67 62 51 48 53 54 57 62 69 71 68 67 64 58 52 51 50 55 58 58 60 68 67 63 63 64 66 69 68 68 72 70

GFSSGP_925_rhum_072.txt.gz
RH
95 83 76 79 87 93 92 86 90 76 71 54 49 55 63 70 76 81 90 73 59 70 79 84 91 89 88 81 76 67 86 88 82 89 94 95 96 92 97 94 93 95 96 96 87 93 91 86 91
78 82 82 94 94 99 91 73 89 79 66 48 49 63 71 89 83 90 96 68 61 68 73 84 88 90 90 82 77 66 82 83 84 80 94 90 95 95 96 96 94 95 96 94 88 91 97 97 91
71 81 92 97 96 96 91 83 86 77 51 49 68 68 77 90 82 90 85 60 64 71 74 79 83 86 91 88 80 80 91 78 91 88 90 96 96 94 97 96 94 87 96 96 97 97 97 92 78
82 82 88 99 93 82 84 84 87 77 64 68 68 85 77 76 76 94 84 56 64 73 78 82 86 90 93 96 89 90 90 86 89 91 94 95 95 97 94 97 92 96 85 96 98 96 84 83 88
84 88 96 97 86 92 73 73 81 84 76 83 69 88 91 88 87 95 77 58 65 81 81 84 90 89 92 94 92 92 91 92 91 91 91 96 95 96 94 92 96 89 96 94 84 87 80 94 85
89 89 94 94 89 91 83 72 80 83 86 86 80 85 95 97 96 97 78 65 68 80 83 86 88 91 92 92 93 90 92 91 89 89 96 95 97 92 92 91 90 88 90 92 95 80 81 89 91
87 92 91 84 88 89 91 88 88 80 77 79 71 85 94 92 97 94 82 74 78 81 79 81 83 88 95 94 84 94 90 90 87 92 83 90 90 89 92 89 88 86 87 93 91 86 95 95 79
86 88 86 75 83 85 84 80 76 69 66 55 63 91 97 88 99 89 94 88 84 82 88 89 93 91 88 93 95 95 94 92 88 83 91 95 92 94 84 82 88 89 90 92 91 81 79 80 78
64 92 91 68 75 85 74 84 93 84 55 53 59 68 79 98 100 100 99 99 98 94 90 86 82 88 92 92 94 95 93 96 90 96 89 86 88 88 83 82 90 90 91 93 80 76 74 78 78
82 95 76 57 69 80 81 77 76 68 58 73 81 84 93 96 94 87 87 86 92 100 93 88 86 85 85 84 92 89 88 90 92 90 83 80 83 84 93 93 94 91 86 72 70 66 71 70 68
74 88 62 57 61 65 74 76 69 73 83 73 92 92 88 90 87 86 86 85 91 98 94 92 92 85 87 88 85 87 83 84 85 84 79 71 71 81 93 95 91 84 74 64 63 64 66 64 64
77 62 58 54 62 71 73 78 77 69 80 70 75 83 87 88 91 93 94 95 100 97 98 88 80 84 88 86 71 74 76 80 82 84 77 68 62 66 76 76 75 68 67 67 68 64 64 69 69
66 57 48 42 59 63 65 67 88 87 75 61 71 76 82 84 84 84 88 96 98 100 95 82 78 80 80 74 64 70 71 74 77 78 75 66 58 55 60 64 65 69 70 68 64 67 70 71 69
43 45 42 38 64 69 71 76 67 84 79 76 72 74 73 74 77 77 80 86 94 95 89 81 77 77 72 60 55 65 69 71 74 75 74 71 67 59 56 58 59 64 68 63 63 64 66 68 65
38 38 34 75 76 74 65 79 73 79 84 85 79 73 69 66 71 75 74 77 80 78 74 77 74 73 67 58 56 65 71 72 72 73 70 70 69 61 60 66 65 63 61 60 61 63 64 62 60
28 28 30 74 70 71 65 71 76 79 76 86 74 69 65 64 65 68 70 71 70 71 72 78 78 69 62 61 62 64 66 69 70 71 68 68 69 65 64 64 61 62 60 58 59 60 61 58 58
36 37 26 62 68 72 82 74 81 80 76 88 72 63 59 62 60 61 66 65 61 60 69 75 73 65 55 53 62 67 68 68 70 68 66 66 68 68 65 61 61 60 61 58 57 62 60 58 60
39 34 28 27 71 69 81 82 90 85 82 75 64 59 58 59 56 58 62 64 63 62 64 65 65 60 59 64 71 70 68 68 69 65 63 65 65 64 65 63 62 60 60 58 54 60 61 60 61
29 30 29 26 34 65 79 81 90 88 81 78 65 59 58 54 50 54 56 63 66 68 66 71 68 62 61 67 75 72 70 66 66 68 63 65 66 66 63 62 63 59 58 54 56 56 62 61 62
28 30 31 28 25 45 60 96 90 85 82 79 75 64 58 52 52 52 52 57 65 63 62 65 68 66 64 66 68 64 65 64 61 65 64 63 63 63 64 64 62 58 58 55 55 54 54 56 57
32 33 32 30 26 78 82 81 92 84 79 73 78 68 58 53 54 52 52 55 62 69 67 60 62 66 67 66 69 65 64 63 65 68 65 64 66 66 64 64 62 60 60 56 55 53 54 54 56
39 33 30 29 23 31 67 82 84 90 94 83 82 78 76 53 51 52 51 59 64 64 63 60 56 64 67 69 66 59 58 62 60 60 63 66 70 69 67 65 63 62 61 56 52 53 52 49 49
35 30 29 26 22 51 49 53 61 89 90 87 82 73 74 68 50 53 52 58 62 65 66 60 56 60 67 66 66 59 57 58 57 60 64 66 70 72 68 67 66 64 63 60 58 56 55 52 48
24 21 26 28 28 28 32 31 29 85 77 67 67 69 64 66 59 49 51 56 60 64 67 68 62 63 66 62 66 61 57 61 63 63 66 66 68 72 72 71 71 68 65 62 58 59 59 58 56
22 27 37 32 32 31 23 26 25 24 26 42 52 60 61 60 60 55 52 55 59 62 65 67 68 68 65 61 60 61 55 55 58 59 59 63 66 69 70 70 72 67 69 65 67 61 60 58 60
23 27 35 31 40 31 27 26 33 30 38 51 51 61 61 62 58 55 50 54 57 60 63 65 68 67 62 61 56 57 57 54 55 57 59 58 59 62 62 68 68 70 68 71 68 68 65 66 64
21 32 25 37 34 31 30 25 23 32 41 50 61 65 72 70 61 58 50 53 55 58 62 66 67 65 60 56 56 57 59 56 56 57 62 60 61 58 63 63 66 68 70 73 67 72 72 69 70
20 19 29 35 34 30 31 42 51 42 45 68 87 87 75 75 70 62 55 50 54 56 59 64 67 66 58 56 56 54 52 56 52 53 61 61 62 64 61 62 64 67 68 70 72 69 72 74 73
28 30 30 36 39 39 42 51 39 47 65 87 85 87 88 74 72 65 58 48 52 55 57 61 68 69 68 67 68 60 56 54 56 52 54 60 59 61 66 67 66 65 63 63 64 68 69 72 72
28 30 33 36 28 44 49 42 70 85 84 80 84 83 88 87 72 72 71 58 50 52 56 60 66 71 68 65 63 61 55 55 56 55 50 55 58 58 60 68 69 68 66 66 70 73 69 67 68

GFSSGP_925_rhum_075.txt.gz
RH
92 89 84 76 75 78 77 81 85 80 66 49 44 48 50 47 60 64 76 75 71 82 86 91 86 92 94 85 78 88 89 86 93 87 78 76 93 85 77 94 90 93 93 91 93 91 83 85 95
92 86 80 82 77 88 90 68 78 71 52 45 46 46 60 71 70 78 73 72 73 79 81 87 84 88 77 87 80 90 91 89 88 92 92 94 83 92 90 90 94 93 96 94 79 94 96 81 84
83 85 84 86 84 94 89 86 85 64 45 47 61 54 68 81 74 66 70 70 75 84 83 90 85 86 92 94 83 88 81 84 85 80 80 87 85 86 94 93 95 96 97 88 93 95 91 78 76
76 71 73 86 84 89 84 90 74 57 57 61 57 74 68 73 65 74 72 72 74 83 81 84 86 93 93 93 84 87 86 88 94 86 85 93 87 95 97 96 96 96 97 97 97 81 78 78 79
77 72 82 87 83 93 76 74 72 58 75 70 60 79 82 75 85 72 71 72 73 79 84 87 88 94 88 90 93 91 87 90 84 83 90 95 97 95 95 94 96 96 96 95 90 90 78 76 83
75 77 82 78 83 88 77 71 69 83 84 76 69 71 86 87 77 71 70 72 74 79 81 86 89 90 91 86 92 88 86 85 84 94 96 87 94 83 90 88 91 91 92 94 93 78 78 79 79
70 81 78 78 80 89 84 70 84 81 82 85 61 76 87 81 74 74 72 78 79 82 84 86 86 94 93 92 86 91 91 82 93 83 86 91 81 96 94 93 80 88 93 95 81 85 75 74 75
70 82 84 73 75 73 79 82 82 69 77 64 55 76 89 79 76 77 77 80 82 83 84 82 85 89 86 92 95 90 90 94 79 85 89 95 94 91 85 84 88 90 93 95 87 78 78 71 72
60 87 81 64 67 81 72 85 91 82 62 52 55 61 64 78 80 76 86 86 87 85 85 88 86 92 97 94 94 93 95 82 88 92 89 88 89 86 80 83 89 91 94 87 77 77 80 76 71
71 80 66 55 60 72 79 89 78 66 62 75 72 67 81 85 74 76 83 84 83 88 85 86 89 92 91 86 92 96 84 93 96 93 95 91 91 85 81 85 90 90 86 73 72 74 72 74 76
72 72 55 52 56 60 80 84 71 61 70 69 86 81 78 80 70 76 76 78 77 88 85 87 92 95 88 92 86 84 88 89 92 81 87 92 89 88 83 84 80 83 82 80 77 77 78 81 78
76 56 53 50 56 60 71 64 73 67 74 61 70 73 77 77 68 69 69 70 75 88 90 89 92 94 94 89 81 88 87 87 84 90 75 73 84 89 93 84 87 84 81 76 73 78 66 71 70
61 52 42 41 52 56 61 64 70 85 72 66 71 76 75 74 69 70 71 68 77 89 89 89 96 98 98 94 90 88 87 81 85 88 75 69 82 78 78 75 80 78 77 78 73 77 74 74 79
40 38 32 34 40 56 58 66 65 81 65 74 72 71 72 68 67 70 73 73 78 83 87 86 91 97 96 85 80 89 89 85 83 74 78 64 64 60 73 77 73 69 73 70 73 68 72 78 75
35 31 39 58 52 60 54 78 64 69 66 71 66 64 62 61 64 64 65 70 75 81 84 88 91 94 92 67 72 83 84 82 84 77 70 71 70 66 65 72 76 70 63 64 63 63 65 72 74
24 23 24 60 56 61 62 69 66 77 72 76 70 63 62 60 61 62 62 64 70 73 84 88 83 90 89 80 67 73 81 83 86 78 69 68 69 67 70 71 64 63 64 64 74 74 72 70 67
26 31 24 62 58 62 68 61 75 72 77 81 75 64 58 58 62 63 63 63 65 71 79 84 85 86 86 64 74 69 68 70 77 72 68 66 68 68 69 69 65 61 64 72 66 72 67 66 65
36 27 24 42 60 59 65 62 76 72 72 77 70 63 59 56 56 57 59 62 62 67 78 82 84 86 82 74 68 80 83 71 68 65 66 63 67 68 68 65 64 62 60 62 62 62 60 66 67
25 25 24 22 46 46 48 56 68 71 76 71 66 62 57 55 54 56 56 59 60 65 76 82 86 81 80 79 78 81 76 79 75 67 62 63 66 64 64 64 66 62 66 62 57 66 69 68 60
26 27 26 24 28 31 40 63 68 72 74 65 64 59 55 52 54 56 56 57 59 61 71 82 85 80 75 80 82 79 77 76 76 65 66 64 64 67 65 61 64 61 68 53 56 54 65 67 62
29 29 27 24 23 62 60 73 76 73 70 69 60 51 49 49 50 56 54 55 57 61 70 76 76 84 70 80 87 74 72 71 76 74 74 65 64 66 65 66 66 61 64 69 58 54 62 60 69
34 25 24 25 25 22 58 43 69 73 72 70 70 58 52 48 46 51 50 53 56 60 67 74 75 68 75 67 79 83 70 65 66 68 70 74 65 69 67 66 64 64 60 57 57 54 57 55 58
30 26 25 25 24 31 48 35 49 70 74 70 68 66 54 46 44 45 49 49 50 57 64 70 75 71 71 72 73 79 74 65 68 70 66 68 67 71 71 69 64 61 65 62 59 54 54 57 56
23 21 20 20 18 22 35 25 30 40 42 39 56 66 60 49 44 44 45 48 50 54 61 69 78 79 67 65 71 74 74 71 66 70 72 75 79 84 78 71 70 64 66 61 66 63 61 65 65
21 22 25 24 22 24 22 24 39 40 46 55 62 47 56 53 48 44 46 47 52 54 60 66 76 80 82 67 74 77 79 67 58 61 70 72 76 77 80 73 68 68 68 68 66 63 65 65 69
24 20 22 30 26 22 23 24 36 34 48 64 64 55 41 48 47 46 45 47 53 56 63 65 71 75 79 80 67 71 79 73 68 68 67 70 69 71 72 67 70 66 68 68 67 79 77 72 73
21 24 17 21 25 19 21 23 24 42 60 71 73 74 70 52 44 46 46 47 52 55 61 65 70 74 77 74 79 73 72 74 69 71 61 68 61 69 60 65 66 67 67 68 69 79 68 68 72
18 18 21 21 30 26 30 37 34 74 82 80 82 85 81 69 59 47 46 48 50 53 57 62 66 70 66 70 74 76 78 74 76 66 62 68 63 59 74 69 68 64 67 69 70 77 74 74 80
18 19 23 21 24 22 29 36 63 85 86 88 85 86 87 71 59 54 49 47 50 52 54 58 63 68 71 72 71 71 70 72 80 77 66 64 60 60 63 67 70 70 66 69 70 72 86 84 87
22 25 22 21 31 31 25 38 62 68 73 78 80 82 82 81 78 69 64 52 50 54 53 57 59 64 67 68 74 71 72 69 75 73 65 60 61 61 59 62 72 81 79 75 69 73 80 69 80